Hourly Data Report for January 16, 2005

SHERBROOKE A
QUEBEC

45°26'00.000" N
71°41'00.000" W
241.40 m
7028124
71610
YSC

Download Data

Hourly Data (January 2005)
Hourly Data Report for January 16, 2005
TIME
LST
Temp Definition
°C
Dew Point Definition
°C
Rel Hum Definition
%
Precip. Amount Definition
mm

Wind Dir Definition
10's deg

Wind Spd Definition
km/h
Visibility Definition
km
Stn Press Definition
kPa
Hmdx Definition


Wind Chill Definition


Weather Definition


00:00 -9.4 -13.8 70   23 9 15.0 100.76   -14  
01:00 -10.2 -13.7 75   22 6 15.0 100.75   -14  
02:00 -10.8 -13.6 80   26 6 15.0 100.76   -14  
03:00 -11.1 -14.0 79   21 9 15.0 100.77   -16  
04:00 -10.3 -14.5 71   22 7 15.0 100.79   -14  
05:00 -10.5 -13.8 77   20 6 15.0 100.79   -14  
06:00 -10.7 -13.5 80     0 15.0 100.82      
07:00 -11.0 -13.3 83   15 4 15.0 100.81   -13  
08:00 -11.3 -13.4 84     0 24.1 100.80     Mostly Cloudy
09:00 -10.6 -13.0 82     0 24.1 100.81     Mostly Cloudy
10:00 -8.9 -13.4 70     0 24.1 100.81     Cloudy
11:00 -8.6 -15.2 59     0 24.1 100.75     Mostly Cloudy
12:00 -7.4 -14.3 58     0 24.1 100.58     Cloudy
13:00 -8.0 -15.1 57     0 24.1 100.51     Mostly Cloudy
14:00 -8.0 -14.6 59   36 6 24.1 100.43   -11 Cloudy
15:00 -7.8 -15.2 55   5 6 24.1 100.37   -11 Mostly Cloudy
16:00 -8.3 -14.3 62   3 6 24.1 100.29   -12 Mostly Cloudy
17:00 -9.1 -13.9 68   3 7 24.1 100.20   -13 Mostly Cloudy
18:00 -9.7 -14.2 70   3 6 15.0 100.17   -13  
19:00 -9.8 -13.8 73   3 9 15.0 100.15   -15  
20:00 -9.8 -13.7 73   5 9 15.0 100.09   -15  
21:00 -9.9 -13.7 74   4 11 12.9 99.98   -15 Snow
22:00 -10.0 -13.6 75   4 11 15.0 99.88   -16  
23:00 -10.2 -13.7 75   4 11 12.9 99.76   -16 Snow

Notes on Data Quality.

Legend

  • E = Estimated
  • M = Missing
  • NA = Not Available*
  • [empty] = Indicates an unobserved value
Date modified: